FW4519 Weather Reports


time (UTC)temp
F
wind
direction
speed
knots
gust
knots
rain 1hr
in
rain 24hr
in
rain mn
in
humidity
%
barometer
mb
20260504202327 84 131 2.6 9.6 0.00 0.00 0.00 50 1013.1
20260504201826 84 99 2.6 11.3 0.00 0.00 0.00 49 1013.1
20260504201324 84 93 5.2 11.3 0.00 0.00 0.00 47 1013.1
20260504200822 83 153 1.7 9.6 0.00 0.00 0.00 48 1013.1
20260504200321 84 173 4.3 9.6 0.00 0.00 0.00 48 1013.2
20260504195818 83 162 1.7 5.2 0.00 0.00 0.00 51 1013.4
20260504195334 83 53 3.5 6.1 0.00 0.00 0.00 49 1013.4
20260504194854 84 118 2.6 13.0 0.00 0.00 0.00 49 1013.5
20260504194323 84 104 2.6 13.0 0.00 0.00 0.00 50 1013.5
20260504193823 84 54 2.6 7.0 0.00 0.00 0.00 50 1013.7
20260504193324 83 50 2.6 7.0 0.00 0.00 0.00 50 1013.7
20260504192821 85 139 2.6 7.8 0.00 0.00 0.00 49 1013.8
20260504192339 83 358 3.5 7.8 0.00 0.00 0.00 50 1013.8
20260504191818 84 65 3.5 9.6 0.00 0.00 0.00 50 1013.9
20260504191314 84 59 6.1 9.6 0.00 0.00 0.00 50 1014.0
20260504190901 84 146 3.5 7.0 0.00 0.00 0.00 50 1014.1
20260504190318 83 111 4.3 10.4 0.00 0.00 0.00 51 1014.0
20260504185815 83 122 4.3 10.4 0.00 0.00 0.00 50 1014.1
20260504185315 82 122 4.3 9.6 0.00 0.00 0.00 50 1014.2
20260504184816 82 117 5.2 7.8 0.00 0.00 0.00 50 1014.2
20260504184333 82 118 2.6 10.4 0.00 0.00 0.00 48 1014.3
20260504183832 82 50 7.0 10.4 0.00 0.00 0.00 49 1014.4
20260504183314 82 42 4.3 10.4 0.00 0.00 0.00 50 1014.4
20260504182831 82 118 6.1 10.4 0.00 0.00 0.00 49 1014.6
20260504182331 82 113 4.3 11.3 0.00 0.00 0.00 51 1014.6
20260504181831 82 118 4.3 11.3 0.00 0.00 0.00 51 1014.7
20260504181329 82 23 4.3 9.6 0.00 0.00 0.00 49 1014.9
20260504180848 82 359 3.5 9.6 0.00 0.00 0.00 51 1015.0
20260504180327 82 30 4.3 9.6 0.00 0.00 0.00 51 1015.1
20260504175823 82 113 3.5 10.4 0.00 0.00 0.00 50 1015.2
20260504175409 82 84 4.3 10.4 0.00 0.00 0.00 52 1015.2
20260504174846 82 112 4.3 10.4 0.00 0.00 0.00 50 1015.2
20260504174324 82 64 3.5 10.4 0.00 0.00 0.00 53 1015.2
20260504173844 82 105 3.5 10.4 0.00 0.00 0.00 52 1015.2
20260504173324 82 124 5.2 9.6 0.00 0.00 0.00 53 1015.3
20260504172817 82 104 3.5 12.2 0.00 0.00 0.00 53 1015.4
20260504172316 81 101 5.2 12.2 0.00 0.00 0.00 53 1015.4
20260504171817 81 75 5.2 12.2 0.00 0.00 0.00 54 1015.6
20260504171313 82 34 3.5 7.0 0.00 0.00 0.00 55 1015.7
20260504170833 82 72 3.5 11.3 0.00 0.00 0.00 53 1015.7
20260504170346 81 73 4.3 11.3 0.00 0.00 0.00 55 1015.5
20260504160338 79 107 6.1 14.8 0.00 0.00 0.00 60 1016.0
20260504150833 77 58 5.2 13.0 0.00 0.00 0.00 64 1016.3
20260504150334 77 65 6.1 13.0 0.00 0.00 0.00 65 1016.3
20260504141331 76 18 3.5 9.6 0.00 0.00 0.00 69 1016.0
20260504140830 76 118 2.6 9.6 0.00 0.00 0.00 70 1016.1
20260504140349 75 64 3.5 11.3 0.00 0.00 0.00 70 1016.0
20260504130814 73 53 2.6 11.3 0.00 0.00 0.00 73 1015.8
20260504130335 73 56 3.5 7.8 0.00 0.00 0.00 73 1015.7
20260504120314 70 44 2.6 7.8 0.00 0.00 0.00 80 1015.3
20260504110322 67 73 1.7 6.1 0.00 0.00 0.00 86 1015.2
20260504100322 68 13 0.9 4.3 0.00 0.00 0.00 85 1014.9
20260504081826 69 63 0.9 4.3 0.00 0.00 0.00 81 1014.6
20260504081326 70 53 0.9 5.2 0.00 0.00 0.00 81 1014.7
20260504080826 70 37 1.7 5.2 0.00 0.00 0.00 81 1014.7
20260504080326 70 68 1.7 4.3 0.00 0.00 0.00 81 1014.7
20260504070324 71 60 0.9 5.2 0.00 0.00 0.00 79 1015.3
20260504050326 71 65 0.0 6.1 0.00 0.01 0.00 80 1016.1
20260504045826 71 71 1.7 6.1 0.00 0.01 0.00 80 1015.9
20260504045325 71 24 0.9 3.5 0.00 0.01 0.00 80 1016.0
20260504044826 71 51 0.9 3.5 0.00 0.01 0.00 80 1016.1
20260504044322 72 105 0.9 4.3 0.00 0.01 0.00 80 1016.2
20260504043822 72 121 2.6 4.3 0.00 0.01 0.00 79 1016.0
20260504043343 72 78 0.9 6.1 0.00 0.01 0.00 79 1016.0
20260504042819 72 89 2.6 7.0 0.00 0.01 0.00 79 1016.0
20260504042318 72 90 3.5 10.4 0.00 0.01 0.00 79 1016.1
20260504041818 72 70 5.2 10.4 0.00 0.01 0.00 78 1016.2
20260504041314 72 62 3.5 7.0 0.00 0.01 0.00 78 1016.4
20260504040814 72 123 2.6 7.8 0.00 0.01 0.00 78 1016.3
20260504040315 72 49 3.5 7.0 0.00 0.01 0.00 78 1016.4
20260504035847 73 116 2.6 8.7 0.00 0.02 0.01 78 1016.5
20260504035326 73 92 2.6 8.7 0.00 0.02 0.01 78 1016.6
20260504034826 73 39 2.6 7.0 0.00 0.02 0.01 77 1016.6
20260504034345 73 113 3.5 7.8 0.00 0.02 0.01 77 1016.4
20260504033823 73 56 2.6 7.0 0.00 0.02 0.01 77 1016.5
20260504033324 73 105 2.6 7.0 0.00 0.02 0.01 77 1016.4
20260504032823 74 75 1.7 8.7 0.00 0.02 0.01 77 1016.5
20260504032323 74 117 2.6 8.7 0.00 0.02 0.01 76 1016.5
20260504031825 74 72 2.6 8.7 0.00 0.02 0.01 76 1016.5
20260504031324 74 107 4.3 7.8 0.00 0.02 0.01 76 1016.4
20260504030845 74 86 3.5 7.8 0.00 0.02 0.01 76 1016.4
20260504030325 74 118 3.5 7.0 0.00 0.02 0.01 76 1016.4
20260504025823 74 113 2.6 8.7 0.00 0.02 0.01 77 1016.3
20260504025321 74 86 3.5 8.7 0.00 0.02 0.01 76 1016.2
20260504024823 74 105 2.6 6.1 0.00 0.02 0.01 76 1016.3
20260504024322 74 91 2.6 6.1 0.00 0.02 0.01 75 1016.3
20260504023842 74 41 0.9 3.5 0.00 0.02 0.01 73 1016.2
20260504023321 74 113 0.0 4.3 0.00 0.02 0.01 74 1016.2
20260504022839 74 11 1.7 5.2 0.00 0.02 0.01 74 1016.1
20260504022317 73 25 1.7 5.2 0.00 0.02 0.01 73 1016.0
20260504021819 73 353 0.9 4.3 0.00 0.02 0.01 72 1015.9
20260504021317 73 13 1.7 4.3 0.00 0.02 0.01 72 1015.9
20260504020817 73 10 0.0 3.5 0.00 0.02 0.01 72 1015.9
20260504020319 73 11 0.9 4.3 0.00 0.02 0.01 72 1015.9
20260504015819 73 23 0.9 4.3 0.00 0.02 0.01 72 1015.6
20260504015332 73 82 0.9 2.6 0.00 0.02 0.01 73 1015.4
20260504014853 73 335 0.0 3.5 0.00 0.02 0.01 73 1015.5
20260504014330 73 14 0.9 3.5 0.00 0.02 0.01 72 1015.4
20260504013828 73 16 0.0 3.5 0.00 0.02 0.01 72 1015.4
20260504013349 73 5 0.9 4.3 0.00 0.02 0.01 72 1015.2
20260504012826 73 23 2.6 6.1 0.00 0.02 0.01 72 1015.2
20260504011826 73 20 0.9 3.5 0.00 0.02 0.01 73 1015.1
20260504011325 73 359 0.9 2.6 0.00 0.02 0.01 73 1015.1
20260504010825 73 359 0.0 2.6 0.00 0.02 0.01 73 1015.0
20260504010327 73 359 0.9 2.6 0.00 0.02 0.01 73 1015.0
20260504005827 73 11 1.7 3.5 0.00 0.02 0.01 73 1014.9
20260504005325 74 345 0.9 4.3 0.00 0.02 0.01 73 1014.9
20260504004823 74 22 2.6 4.3 0.00 0.02 0.01 73 1014.8
20260504004323 74 306 1.7 4.3 0.00 0.02 0.01 73 1014.8
20260504003844 74 13 1.7 6.1 0.00 0.02 0.01 73 1014.7
20260504003323 74 342 1.7 6.1 0.00 0.02 0.01 74 1014.7
20260504002821 74 352 0.9 6.1 0.00 0.02 0.01 74 1014.7
20260504002319 74 13 1.7 6.1 0.00 0.02 0.01 73 1014.6
20260504001822 74 322 3.5 6.1 0.00 0.02 0.01 73 1014.5
20260504001321 74 337 3.5 6.1 0.00 0.02 0.01 73 1014.4
20260504000820 74 356 1.7 7.0 0.00 0.02 0.01 73 1014.3
20260504000343 74 11 3.5 7.0 0.00 0.02 0.01 73 1014.3
20260503235838 74 345 3.5 7.0 0.00 0.02 0.01 73 1014.4
20260503235318 75 316 2.6 9.6 0.00 0.02 0.01 72 1014.3
20260503234818 75 350 4.3 9.6 0.00 0.02 0.01 72 1014.1
20260503234316 75 298 3.5 8.7 0.00 0.02 0.01 72 1014.1
20260503233815 75 296 2.6 9.6 0.00 0.02 0.01 72 1014.3
20260503233316 75 325 4.3 9.6 0.00 0.02 0.01 71 1014.2
20260503232814 76 23 1.7 6.1 0.00 0.02 0.01 71 1014.4
20260503231815 76 314 2.6 8.7 0.00 0.02 0.01 70 1014.3
20260503231314 76 309 3.5 7.8 0.00 0.02 0.01 70 1014.2
20260503230814 77 335 2.6 10.4 0.00 0.02 0.01 69 1014.1
20260503230336 77 354 6.1 10.4 0.00 0.02 0.01 68 1014.2
20260503225855 77 13 3.5 10.4 0.00 0.03 0.01 68 1014.2
20260503225331 77 349 3.5 10.4 0.00 0.03 0.01 68 1014.3
20260503224853 78 304 3.5 8.7 0.00 0.03 0.01 67 1014.2
20260503224332 78 20 3.5 7.0 0.00 0.03 0.01 67 1014.2
20260503223830 78 314 0.9 8.7 0.00 0.03 0.01 67 1014.2
20260503223329 79 299 4.3 9.6 0.00 0.03 0.01 65 1014.2
20260503222829 79 9 4.3 9.6 0.00 0.03 0.01 64 1014.2
20260503222329 80 354 0.9 10.4 0.00 0.03 0.01 64 1014.1
20260503221831 81 27 2.6 5.2 0.00 0.03 0.01 58 1014.1
20260503221329 81 123 0.9 4.3 0.00 0.03 0.01 59 1014.1
20260503220827 80 53 2.6 7.8 0.00 0.03 0.01 59 1014.1
20260503220328 81 10 3.5 7.8 0.00 0.03 0.01 59 1014.2
20260503215826 81 314 2.6 4.3 0.00 0.11 0.01 59 1014.2
20260503215327 81 325 2.6 5.2 0.00 0.11 0.01 59 1014.2
20260503214828 81 13 0.9 8.7 0.00 0.11 0.01 60 1014.2
20260503214326 80 3 2.6 8.7 0.00 0.11 0.01 60 1014.2
20260503213846 80 47 3.5 7.0 0.00 0.11 0.01 60 1014.2
20260503213325 80 300 2.6 7.8 0.00 0.11 0.01 60 1014.1
20260503212844 80 93 3.5 7.8 0.00 0.11 0.01 60 1014.2
20260503212322 81 10 2.6 6.1 0.00 0.11 0.01 59 1014.3
20260503211824 80 8 2.6 6.1 0.00 0.11 0.01 60 1014.2
20260503211322 80 288 1.7 7.0 0.00 0.11 0.01 59 1014.3
20260503210819 80 11 2.6 8.7 0.00 0.11 0.01 59 1014.3
20260503210318 80 74 2.6 6.1 0.00 0.11 0.01 60 1014.3
20260503205818 80 32 2.6 7.8 0.00 0.14 0.01 61 1014.3
20260503205335 81 319 3.5 7.8 0.00 0.14 0.01 60 1014.3
20260503204815 80 359 1.7 5.2 0.00 0.14 0.01 61 1014.4
20260503204333 79 28 2.6 5.2 0.00 0.14 0.01 62 1014.5
20260503203832 79 21 2.6 5.2 0.00 0.14 0.01 62 1014.6
20260503203334 79 97 3.5 6.1 0.00 0.14 0.01 62 1014.6
20260503202833 80 119 3.5 9.6 0.00 0.14 0.01 62 1014.7